Marion, OH

1:11 PM EDT on June 28, 2017 (GMT -0400)
Marion Municipal

Weather History for KMNN - March, 2013

Change the Weather History Date:

Tuesday, March 12, 2013

  Actual Average (KDLZ) Record (KDLZ)
Temperature  
Mean Temperature 34 °F -  
Max Temperature 37 °F 46 °F 75 °F (1990)
Min Temperature 30 °F 26 °F -5 °F (1948)
Degree Days  
Heating Degree Days 32    
Moisture  
Dew Point 28 °F    
Average Humidity 77    
Maximum Humidity 85    
Minimum Humidity 65    
Precipitation  
Precipitation 0.00 in - - ()
Sea Level Pressure  
Sea Level Pressure 29.94 in    
Wind  
Wind Speed 12 mph (WSW)    
Max Wind Speed 17 mph    
Max Gust Speed 24 mph    
Visibility 9 miles    
Events Snow    
Averages and records for this station are not official NWS values.
T = Trace of Precipitation, MM = Missing Value Source: NWS Daily Summary

Daily Weather History Graph

Daily Weather History Graph

Search for Another Location

Airport or City:

Trip Planner

Search our weather history database for the weather conditions in past years. The results will help you decide how hot, cold, wet, or windy it might be!

Date:

Astronomy

Mar. 12, 2013 Rise Set
Actual Time 7:48 AM EDT 7:36 PM EDT
Civil Twilight 7:21 AM EDT 8:03 PM EDT
Nautical Twilight 6:49 AM EDT 8:35 PM EDT
Astronomical Twilight 6:17 AM EDT 9:07 PM EDT
Moon 7:53 AM EDT (3/12) 8:50 PM EDT (3/12)
Length of Visible Light 12h 42m
Length of Day
11h 47m
New Moon, 1% of the Moon is Illuminated
Mar 12
New Moon
Mar 19
First Quarter
Mar 27
Full
Apr 3
Last Quarter
Apr 10
New

Hourly Weather History & Observations

Time (EDT) Temp. Windchill Dew Point Humidity Pressure Visibility Wind Dir Wind Speed Gust Speed Precip Events Conditions
12:53 AM 37.0 °F 29.3 °F 30.9 °F 79% 29.81 in 10.0 mi West 11.5 mph - N/A   Mostly Cloudy
1:53 AM 36.0 °F 27.1 °F 30.9 °F 82% 29.83 in 10.0 mi West 13.8 mph 21.9 mph N/A   Overcast
2:53 AM 36.0 °F 27.1 °F 30.0 °F 79% 29.85 in 10.0 mi West 13.8 mph 21.9 mph N/A   Overcast
3:53 AM 35.1 °F 26.4 °F 28.9 °F 78% 29.86 in 10.0 mi WSW 12.7 mph 20.7 mph N/A   Overcast
4:53 AM 34.0 °F 25.5 °F 28.9 °F 82% 29.86 in 10.0 mi West 11.5 mph - N/A   Overcast
5:53 AM 34.0 °F 25.0 °F 28.0 °F 79% 29.87 in 10.0 mi West 12.7 mph - N/A   Overcast
6:53 AM 34.0 °F 25.5 °F 28.0 °F 79% 29.90 in 10.0 mi West 11.5 mph 18.4 mph N/A   Overcast
7:53 AM 33.1 °F 24.9 °F 28.0 °F 82% 29.91 in 9.0 mi West 10.4 mph - N/A   Overcast
8:53 AM 33.1 °F 26.1 °F 28.0 °F 82% 29.93 in 10.0 mi WSW 8.1 mph - N/A   Overcast
9:48 AM 33.8 °F 26.4 °F 28.4 °F 81% 29.91 in 7.0 mi West 9.2 mph - N/A   Overcast
9:53 AM 33.1 °F 24.4 °F 28.9 °F 85% 29.95 in 7.0 mi West 11.5 mph - N/A   Overcast
10:53 AM 33.1 °F 23.4 °F 28.0 °F 82% 29.95 in 7.0 mi WSW 13.8 mph - N/A   Overcast
11:48 AM 33.8 °F 23.9 °F 28.4 °F 81% 29.93 in 8.0 mi West 15.0 mph - N/A   Overcast
11:53 AM 34.0 °F 24.6 °F 28.9 °F 82% 29.96 in 8.0 mi WSW 13.8 mph - N/A   Overcast
12:09 PM 33.8 °F 23.9 °F 28.4 °F 81% 29.93 in 8.0 mi West 15.0 mph 20.7 mph N/A   Overcast
12:53 PM 35.1 °F 25.5 °F 28.0 °F 76% 29.96 in 10.0 mi WSW 15.0 mph - N/A   Overcast
1:24 PM 35.6 °F 25.9 °F 26.6 °F 70% 29.94 in 10.0 mi WSW 16.1 mph 23.0 mph N/A   Overcast
1:53 PM 34.0 °F 24.6 °F 26.1 °F 73% 29.98 in 10.0 mi West 13.8 mph 24.2 mph N/A   Overcast
2:12 PM 33.8 °F 24.8 °F 26.6 °F 75% 29.94 in 10.0 mi West 12.7 mph 21.9 mph N/A   Overcast
2:53 PM 34.0 °F 25.5 °F 27.0 °F 75% 29.97 in 10.0 mi WSW 11.5 mph 21.9 mph N/A   Overcast
3:53 PM 34.0 °F 23.4 °F 26.1 °F 73% 29.96 in 10.0 mi WSW 17.3 mph 23.0 mph N/A   Overcast
4:53 PM 35.1 °F 26.9 °F 26.1 °F 70% 29.97 in 10.0 mi West 11.5 mph 23.0 mph N/A   Overcast
5:53 PM 35.1 °F 27.4 °F 26.1 °F 70% 29.99 in 10.0 mi West 10.4 mph 18.4 mph N/A   Overcast
6:14 PM 35.6 °F 27.1 °F 24.8 °F 65% 29.95 in 10.0 mi West 12.7 mph - N/A   Overcast
6:53 PM 35.1 °F 28.6 °F 26.1 °F 70% 29.98 in 10.0 mi WSW 8.1 mph - N/A   Overcast
7:23 PM 35.6 °F 29.9 °F 26.6 °F 70% 29.95 in 10.0 mi Variable 6.9 mph - N/A   Overcast
7:53 PM 35.1 °F 29.3 °F 27.0 °F 72% 29.99 in 10.0 mi SW 6.9 mph - N/A   Overcast
8:33 PM 35.6 °F 28.0 °F 28.4 °F 75% 29.97 in 2.5 mi West 10.4 mph - 0.00 in Snow Light Snow
8:41 PM 33.8 °F 27.0 °F 28.4 °F 81% 29.97 in 1.8 mi West 8.1 mph - 0.00 in Snow Light Snow
8:45 PM 33.8 °F 27.7 °F 28.4 °F 81% 29.97 in 3.0 mi West 6.9 mph - 0.00 in Snow Light Snow
8:53 PM 34.0 °F 28.0 °F 28.9 °F 82% 30.01 in 7.0 mi WSW 6.9 mph - 0.00 in Snow Light Snow
9:53 PM 33.1 °F 26.1 °F 28.0 °F 82% 30.02 in 10.0 mi West 8.1 mph - 0.00 in   Partly Cloudy
10:53 PM 30.9 °F 27.5 °F 25.0 °F 79% 30.01 in 10.0 mi West 3.5 mph - N/A   Clear
11:53 PM 30.0 °F 26.5 °F 25.0 °F 82% 30.00 in 10.0 mi SSW 3.5 mph - N/A   Overcast